星链-5306 (STARLINK-5306 )

导读

STARLINK-5306是美国SpaceX公司星链星座的一颗低轨互联网卫星,于2023年1月19日由猎鹰9号运载火箭发射入轨。作为星链大规模组网中的一员,它运行在近地轨道,配备相控阵天线与霍尔推进系统,承担全球宽带互联网接入任务,为偏远地区、特殊场景提供稳定的网络连接,是星链构建全球覆盖低轨卫星通信网络的重要组成部分。

Basic Information
目录编号:
55271
目录名称:
STARLINK-5306
国际标识:
2023-010C
轨道中心:
EARTH
卫星名称:
星链-5306
卫星全名:
星链-5306 (STARLINK-5306 )
卫星状态:
在轨 (已飞行1243 天)
发射日期:
2023-01-19 UTC
国别 :
美国 (US)
星等 :
--
Orbit Information
数据来源 国际轨道数据 AOE轨道数据
星历时间 2026-06-15T00:40:07+0800
15小时前
查看轨道信息
2026-06-14T18:00:00+0800
21小时前
查看轨道信息
半长轴 6950.194km 6950.183km
偏心率 0.0003463 0.0003315
轨道倾角 69.999° 69.999°
近地点辐角 268.728° 263.563°
升交点赤经 159.977° 160.675°
平近点角 91.348° 38.162°
近地点 569.65km 569.742km
远地点 574.464km 574.35km
周期 96.107分钟 96.107分钟
每日圈数 14.983299 14.983335
Detailed Information
固有亮度:
5
最大亮度:
2.5
卫星平台:
Starlink v1.5
覆盖范围:
全球
运营商:
太空探索技术公司
运营商所在国:
美国
制造商(研发单位):
太空探索技术公司
制造商所在国:
美国
使用方式:
暂无
Satellite Introduction
星链(Starlink)计划是由太空探索技术公司(SpaceX)提出的一个巨型低轨卫星互联网星座项目,计划在2019年至2024年间在太空搭建由约1.2万颗卫星组成的“星链”网络,其中1584颗将部署在地球上空550千米处的近地轨道,并从2020年开始工作。该卫星仍在工作。
2D Orbit Map
3D Orbit Map
Orbit Altitude Analysis Chart
Orbit Inclination Analysis Chart
Orbit Comprehensive Analysis Chart
View Comprehensive Chart